DW8482 Tortoreto Alto IT current weather conditions

sailwx.info

Wind from 323

Air temperature 22.2° C
Dewpoint 15.1° C

Last reported at 2016-Sep-27 11:52 UTC.
Time now 2016-Sep-27 12:09 UTC

Location: N 42°48' E 013°54'.
View on Google Maps.

See reports from other nearby stations

  
Tides and Currents Weather Stations Pressure Air Temp Water Temp Dewpoint Dewpoint Depression Visibility Wind Speed Wind Dir Waves Ship Positions
date/time (UTC)wind fromknots sea level pressurealtimeterstation pressurevisibilityair tempwater tempwave heightnotes
2016-Sep-27 11:52 323 22.2
2016-Sep-27 11:42 22.2
2016-Sep-27 11:37 293 0 gusting 4 22.2
2016-Sep-27 11:32 111 4 gusting 6 22.2
2016-Sep-27 11:27 033 22.2
2016-Sep-27 11:22 038 0 gusting 2 22.2
2016-Sep-27 11:17 350 22.2
2016-Sep-27 11:12 005 0 gusting 6 22.2
2016-Sep-27 11:07 128 22.2
2016-Sep-27 10:57 082 21.7
2016-Sep-27 10:47 225 1 gusting 5 21.7
2016-Sep-27 10:37 233 22.2
2016-Sep-27 10:27 312 1 gusting 2 22.2
2016-Sep-27 10:22 096 0 gusting 1 22.2
2016-Sep-27 10:17 173 0 gusting 5 21.7
2016-Sep-27 10:08 089 21.7
2016-Sep-27 10:02 093 22.2
2016-Sep-27 09:42 178 21.7
2016-Sep-27 09:37 271 21.1
2016-Sep-27 09:27 281 0 gusting 5 21.7
2016-Sep-27 09:17 271 1 gusting 2 21.7
2016-Sep-27 09:07 084 21.7
2016-Sep-27 09:02 084 21.7
2016-Sep-27 08:57 247 21.7
2016-Sep-27 08:52 245 21.1
2016-Sep-27 08:42 280 21.1
2016-Sep-27 08:37 296 21.1
2016-Sep-27 08:27 288 20.6
2016-Sep-27 08:17 290 20.0
2016-Sep-27 08:12 290 20.0
2016-Sep-27 07:57 295 19.4
2016-Sep-27 07:52 288 3 gusting 3 19.4
2016-Sep-27 07:47 279 19.4
2016-Sep-27 07:32 283 19.4
2016-Sep-27 07:27 281 19.4
2016-Sep-27 07:12 014 18.9
2016-Sep-27 07:02 300 17.8
2016-Sep-27 06:47 295 17.2
2016-Sep-27 06:42 284 1 gusting 3 17.2
2016-Sep-27 06:37 289 17.2
2016-Sep-27 06:32 285 17.2
2016-Sep-27 06:22 292 16.1
2016-Sep-27 06:17 289 16.1
2016-Sep-27 06:02 292 16.1
2016-Sep-27 05:57 290 16.1
2016-Sep-27 05:52 309 16.1
2016-Sep-27 05:47 299 15.6
2016-Sep-27 05:42 310 0 gusting 3 15.6
2016-Sep-27 05:32 294 15.6
2016-Sep-27 05:17 302 0 gusting 1 15.0
2016-Sep-27 05:12 300 15.0
2016-Sep-27 05:02 284 1 gusting 2 15.6
2016-Sep-27 04:52 295 15.6
2016-Sep-27 04:47 294 15.6
2016-Sep-27 04:27 305 0 gusting 2 15.0
2016-Sep-27 04:22 295 15.0
2016-Sep-27 04:07 289 0 gusting 3 15.0
2016-Sep-27 04:02 283 0 gusting 0 15.0
2016-Sep-27 03:52 255 15.0
2016-Sep-27 03:47 215 15.0
2016-Sep-27 03:42 338 15.0
2016-Sep-27 03:27 307 15.0
2016-Sep-27 03:22 293 0 gusting 4 15.0
2016-Sep-27 03:17 294 15.0
2016-Sep-27 03:12 301 0 gusting 1 15.0
2016-Sep-27 02:52 300 15.0
2016-Sep-27 02:42 303 15.0
2016-Sep-27 02:37 297 1 gusting 2 15.0
2016-Sep-27 02:32 292 15.0
2016-Sep-27 02:22 296 15.0
2016-Sep-27 02:17 306 15.0
2016-Sep-27 01:57 294 15.6
2016-Sep-27 01:32 307 1 gusting 1 15.6
2016-Sep-27 01:27 292 15.6
2016-Sep-27 01:17 300 15.6
2016-Sep-27 01:07 239 15.6
2016-Sep-27 01:02 294 15.6
2016-Sep-27 00:58 273 15.6
2016-Sep-27 00:42 269 15.6
2016-Sep-27 00:37 304 15.6
2016-Sep-27 00:27 306 1 gusting 5 15.6
2016-Sep-27 00:18 292 2 gusting 4 15.6
2016-Sep-27 00:12 298 1 gusting 4 15.6
2016-Sep-27 00:07 298 0 gusting 3 15.6
2016-Sep-27 00:02 302 0 gusting 5 15.6
2016-Sep-26 23:57 298 0 gusting 1 15.6
2016-Sep-26 23:52 296 0 gusting 5 15.6
2016-Sep-26 23:47 295 1 gusting 4 16.1
2016-Sep-26 23:42 296 2 gusting 6 16.1
2016-Sep-26 23:32 317 3 gusting 5 16.1
2016-Sep-26 23:08 292 3 gusting 4 16.1
2016-Sep-26 22:57 300 4 gusting 5 16.1
2016-Sep-26 22:48 295 3 gusting 4 16.1
2016-Sep-26 22:37 292 3 gusting 5 16.1
2016-Sep-26 22:27 295 1 gusting 4 16.1
2016-Sep-26 22:12 288 16.1
2016-Sep-26 22:08 294 0 gusting 3 16.1
2016-Sep-26 21:57 291 2 gusting 3 16.1
2016-Sep-26 21:32 285 16.7
2016-Sep-26 21:27 285 16.7
2016-Sep-26 21:22 286 0 gusting 1 16.7
2016-Sep-26 21:17 284 16.7
2016-Sep-26 21:07 303 16.7
2016-Sep-26 21:02 303 16.7
2016-Sep-26 20:52 304 16.7
2016-Sep-26 20:42 306 16.7
2016-Sep-26 20:32 005 16.7
2016-Sep-26 20:27 005 0 gusting 2 17.2
2016-Sep-26 20:17 082 17.2
2016-Sep-26 20:13 082 0 gusting 0 17.2
2016-Sep-26 20:07 082 17.2
2016-Sep-26 20:02 082 17.2
2016-Sep-26 19:52 082 17.2
2016-Sep-26 19:47 082 17.2
2016-Sep-26 19:32 082 17.2
2016-Sep-26 19:22 082 0 gusting 1 17.8
2016-Sep-26 19:17 082 17.8
2016-Sep-26 19:07 082 17.8
2016-Sep-26 18:32 082 17.8
2016-Sep-26 18:27 082 17.8
2016-Sep-26 18:22 082 17.8
2016-Sep-26 18:07 082 17.8
2016-Sep-26 17:42 082 18.3
2016-Sep-26 17:37 082 18.3
2016-Sep-26 17:32 082 18.3
2016-Sep-26 17:27 082 18.3
2016-Sep-26 17:13 082 18.3
2016-Sep-26 17:08 082 18.3
2016-Sep-26 17:03 082 18.9
2016-Sep-26 16:53 082 18.9
2016-Sep-26 16:43 082 18.9
2016-Sep-26 16:38 082 18.9
2016-Sep-26 16:33 082 18.9
2016-Sep-26 16:23 082 18.9
2016-Sep-26 16:13 082 19.4
2016-Sep-26 16:08 082 19.4
2016-Sep-26 15:58 082 19.4
2016-Sep-26 15:53 082 19.4
2016-Sep-26 15:23 082 20.0
2016-Sep-26 15:18 082 20.0
2016-Sep-26 14:58 082 20.0
2016-Sep-26 14:53 082 1 gusting 4 20.6
2016-Sep-26 14:48 086 20.6
2016-Sep-26 14:43 092 2 gusting 6 20.6
2016-Sep-26 14:38 355 20.6
2016-Sep-26 14:33 068 21.1
2016-Sep-26 14:28 321 21.1
2016-Sep-26 14:18 072 0 gusting 2 21.7
2016-Sep-26 13:43 037 21.7
2016-Sep-26 13:38 284 0 gusting 5 21.7
2016-Sep-26 13:33 174 22.2
2016-Sep-26 13:23 076 2 gusting 6 21.7
2016-Sep-26 13:18 082 1 gusting 5 21.7
2016-Sep-26 13:13 289 0 gusting 2 22.2
2016-Sep-26 13:08 273 2 gusting 2 21.7
2016-Sep-26 12:43 265 21.7
2016-Sep-26 12:38 238 2 gusting 4 21.7
2016-Sep-26 12:33 302 21.7
2016-Sep-26 12:28 267 3 gusting 4 22.2
2016-Sep-26 12:23 083 4 gusting 4 22.2
2016-Sep-26 11:58 269 2 gusting 4 21.7
2016-Sep-26 11:53 267 0 gusting 4 21.7
2016-Sep-26 11:43 103 22.2
2016-Sep-26 11:38 270 3 gusting 4 22.2
2016-Sep-26 11:28 082 22.2
2016-Sep-26 11:23 094 22.2
2016-Sep-26 11:08 263 0 gusting 3 22.2
2016-Sep-26 10:58 238 21.7
2016-Sep-26 10:43 327 0 gusting 5 21.7
2016-Sep-26 10:33 299 21.7
2016-Sep-26 10:28 268 1 gusting 3 22.2
2016-Sep-26 10:23 266 22.2
2016-Sep-26 10:13 078 1 gusting 3 22.2
2016-Sep-26 09:57 289 22.2
2016-Sep-26 09:52 309 0 gusting 4 21.7
2016-Sep-26 09:02 286 21.1
2016-Sep-26 08:57 273 20.6
2016-Sep-26 08:52 292 20.6
2016-Sep-26 08:42 293 2 gusting 6 20.6
2016-Sep-26 08:27 304 1 gusting 4 20.0
2016-Sep-26 08:17 309 19.4
2016-Sep-26 08:07 286 18.9
2016-Sep-26 07:57 293 2 gusting 4 18.9
2016-Sep-26 07:42 286 18.3
2016-Sep-26 07:27 284 0 gusting 3 17.8
2016-Sep-26 07:22 286 1 gusting 4 17.8
2016-Sep-26 07:12 296 2 gusting 4 17.2
2016-Sep-26 06:57 302 1 gusting 4 17.2
2016-Sep-26 06:47 289 16.7
2016-Sep-26 06:32 300 4 gusting 4 16.1
2016-Sep-26 06:27 296 1 gusting 5 16.1
2016-Sep-26 06:17 291 2 gusting 4 15.6
2016-Sep-26 06:02 297 0 gusting 4 15.6
2016-Sep-26 05:57 281 0 gusting 5 15.0
2016-Sep-26 05:47 294 15.0
2016-Sep-26 05:42 296 3 gusting 5 15.0
2016-Sep-26 05:37 292 0 gusting 5 15.0
2016-Sep-26 05:32 294 2 gusting 4 15.0
2016-Sep-26 05:27 295 1 gusting 4 15.0
2016-Sep-26 05:17 289 0 gusting 5 15.0
2016-Sep-26 05:12 309 15.0
2016-Sep-26 05:07 305 0 gusting 4 14.4
2016-Sep-26 05:02 333 0 gusting 4 14.4
2016-Sep-26 04:57 289 1 gusting 3 14.4
2016-Sep-26 04:42 313 13.9
2016-Sep-26 04:37 312 13.9
2016-Sep-26 04:27 313 14.4
2016-Sep-26 04:17 309 14.4
2016-Sep-26 04:12 306 14.4
2016-Sep-26 04:02 344 14.4
2016-Sep-26 03:57 005 14.4
2016-Sep-26 03:52 315 14.4
2016-Sep-26 03:47 305 14.4
2016-Sep-26 03:37 295 15.0
2016-Sep-26 03:32 304 15.0
2016-Sep-26 03:27 299 15.0
2016-Sep-26 03:22 296 15.0
2016-Sep-26 03:12 298 15.0
2016-Sep-26 03:07 300 15.0
2016-Sep-26 02:57 299 15.6
2016-Sep-26 02:37 292 15.6
2016-Sep-26 02:27 299 15.6
2016-Sep-26 02:22 300 15.6
2016-Sep-26 02:12 300 15.0
2016-Sep-26 02:02 342 15.0
2016-Sep-26 01:52 304 15.0
2016-Sep-26 01:47 302 15.0
2016-Sep-26 01:42 302 15.0
2016-Sep-26 01:37 300 1 gusting 2 15.0
2016-Sep-26 01:32 298 14.4
2016-Sep-26 01:17 313 14.4
2016-Sep-26 00:52 301 4 gusting 5 15.6
2016-Sep-26 00:42 287 15.6
2016-Sep-26 00:32 290 0 gusting 3 16.1
2016-Sep-26 00:22 297 16.1
2016-Sep-26 00:12 297 16.1
2016-Sep-26 00:07 297 16.1
2016-Sep-26 00:02 296 16.1
2016-Sep-25 23:47 296 16.1
2016-Sep-25 23:42 296 16.1
2016-Sep-25 23:37 290 0 gusting 3 16.1
2016-Sep-25 23:32 296 0 gusting 3 16.7
2016-Sep-25 23:27 297 16.1
2016-Sep-25 23:12 296 16.1
2016-Sep-25 23:07 290 0 gusting 1 16.1
2016-Sep-25 22:42 283 16.1
2016-Sep-25 22:37 283 16.1
2016-Sep-25 22:32 284 16.1
2016-Sep-25 22:27 283 16.1
2016-Sep-25 22:12 280 16.1
2016-Sep-25 22:07 280 16.1
2016-Sep-25 21:42 292 16.7
2016-Sep-25 21:32 294 16.7
2016-Sep-25 21:27 294 16.7
2016-Sep-25 21:22 294 16.7
2016-Sep-25 21:17 294 16.7
2016-Sep-25 21:12 294 16.7
2016-Sep-25 21:02 294 17.2
2016-Sep-25 20:57 294 17.2
2016-Sep-25 20:52 294 0 gusting 2 17.2
2016-Sep-25 20:47 290 17.2
2016-Sep-25 20:37 290 17.2
2016-Sep-25 20:22 290 1 gusting 2 17.2
2016-Sep-25 20:17 298 0 gusting 1 17.2
2016-Sep-25 20:12 300 17.8
2016-Sep-25 20:07 296 17.8
2016-Sep-25 20:02 296 17.8
2016-Sep-25 19:57 296 17.8
2016-Sep-25 19:52 296 0 gusting 1 17.8
2016-Sep-25 19:47 297 17.8
2016-Sep-25 19:37 297 1 gusting 2 17.8
2016-Sep-25 19:32 297 18.3
2016-Sep-25 19:22 298 18.3
2016-Sep-25 19:12 297 18.3
2016-Sep-25 19:07 297 18.3
2016-Sep-25 18:57 298 18.3
2016-Sep-25 18:47 298 18.3
2016-Sep-25 18:42 297 18.3
2016-Sep-25 18:37 297 18.3
2016-Sep-25 18:32 297 18.3
2016-Sep-25 18:22 298 18.9
2016-Sep-25 18:17 297 18.9
2016-Sep-25 18:07 297 18.9
2016-Sep-25 18:02 297 18.9
2016-Sep-25 17:47 296 18.9
2016-Sep-25 17:37 296 18.9
2016-Sep-25 17:27 296 18.9
2016-Sep-25 17:22 296 18.9
2016-Sep-25 17:17 296 18.9
2016-Sep-25 17:07 296 18.9
2016-Sep-25 16:57 296 18.9
2016-Sep-25 16:52 296 18.9
2016-Sep-25 16:47 296 18.9
2016-Sep-25 16:32 296 18.9
2016-Sep-25 16:27 296 18.9
2016-Sep-25 16:07 294 19.4
2016-Sep-25 16:02 294 19.4
2016-Sep-25 15:52 294 19.4
2016-Sep-25 15:47 294 20.0
2016-Sep-25 15:37 294 0 gusting 1 20.0
2016-Sep-25 15:27 294 20.0
2016-Sep-25 15:22 296 20.0
2016-Sep-25 15:17 294 20.6
2016-Sep-25 15:07 304 20.6
2016-Sep-25 15:02 321 20.6
2016-Sep-25 14:57 042 20.6
2016-Sep-25 14:37 252 0 gusting 2 20.6
2016-Sep-25 14:27 288 2 gusting 2 21.1
2016-Sep-25 14:22 269 0 gusting 3 21.1
2016-Sep-25 14:17 288 0 gusting 4 21.7
2016-Sep-25 14:12 292 0 gusting 2 21.1
2016-Sep-25 14:07 277 1 gusting 6 21.7
2016-Sep-25 13:57 094 21.7
2016-Sep-25 13:52 072 0 gusting 4 21.7
2016-Sep-25 13:32 297 2 gusting 4 21.7
2016-Sep-25 13:22 075 2 gusting 7 21.7
2016-Sep-25 13:07 280 2 gusting 2 22.2
2016-Sep-25 12:47 195 21.7
2016-Sep-25 12:42 071 0 gusting 4 22.2
2016-Sep-25 12:37 344 0 gusting 4 22.2
2016-Sep-25 12:32 247 1 gusting 4 21.7
2016-Sep-25 12:27 254 21.7
2016-Sep-25 12:17 238 22.2
2016-Sep-25 12:07 271 1 gusting 2 22.2